Weather in Saint-Remy-de-Provence

France     43°47′20″N   4°50′00″E
temp.,
°C
wind,
m/s
gust,
m/s
humid.,
%
clouds,
%
prec.,
mm/h
press.,
hPa
HPBL,
m
8 december, wed
wed801:00+7e51287100 1.5 1006389
04:00+7n3489100 0.4 1002245
07:00+7n4695100 10.8 1001269
10:00+6n4889100 3.1 1002491
13:00+8nnw587461 3.3 1001828
16:00+8nnw3679100 0.2 1000333
19:00+5wnw35895 0.2 100271
22:00+4nw37845 0.0 1004128
9 december, thu
thu901:00+3nw48814 0.0 1005164
04:00+4nw715672 0.0 1006400
07:00+4nw613683 0.0 1008328
10:00+5nw613652 0.0 1009893
13:00+8nnw814535 0.0 10091406
16:00+7n7116011 0.0 1009576
19:00+4nnw613715 0.0 1010376
22:00+3nnw4117531 0.0 1010255
10 december, fri
fri1001:00+3n2273100 0.0 100917
04:00+3nw0075100 0.1 100819
07:00+2ene3589100 1.7 1006201
10:00+3nnw1289100 0.6 1007110
13:00+8nw47725 0.6 1006432
16:00+9nw597033 0.0 1004412
19:00+6nw497795 0.1 1005200
22:00+4nnw51283100 0.0 1008410
11 december, sat
sat1101:00+4nnw716721 0.0 1009606
04:00+4nnw1018645 0.0 1011958
07:00+4nnw1120675 0.0 10131247
10:00+6nnw1322581 0.0 10151481
13:00+8nnw1522560 0.0 10161538
16:00+7n1422591 0.0 10181323
19:00+5n1422615 0.0 10201131
22:00+5nnw1422585 0.0 10221102
12 december, sun
sun1201:00+5n1321616 0.0 10221033
04:00+4n1322669 0.0 1023968
07:00+4nnw1323665 0.0 1023896
10:00+5n13216432 0.0 1025852
13:00+8n11165467 0.0 1024694
16:00+7n1116535 0.0 1024558
19:00+6n916540 0.0 1025451
22:00+5n713625 0.0 1027357